User: anonymous   Login
Location: Lourdes
(43.1000°N, 0.0500°W)
Time: 07:31:10
(UTC+00:00)
Language:

YAOGAN-30 F - Orbit

View from above orbital plane
View from above orbital plane
View from above satellite
View from above satellite

Ground track
Ground track

The orbit data is extracted from the following two-line orbital elements,

1 43030U 17075C   21167.05034309  .00000193  00000-0  22378-4 0  9990
2 43030  34.9963 111.5702 0002931  94.6086 265.4948 14.89934934193848
Epoch (UTC): 16 June 2021 01:12:29
Eccentricity: 0.0002931
inclination: 34.9963°
perigee height: 596 km
apogee height: 600 km
right ascension of ascending node: 111.5702°
argument of perigee: 94.6086°
revolutions per day: 14.89934934
mean anomaly at epoch: 265.4948°
orbit number at epoch: 19384

The dashed part of the orbit path shows where the satellite is in the earth's shadow,  

DLR